{"data":{"norad_id":58419,"intl_designator":"2023-180T","name":"STARLINK-30917","alt_names":[],"object_type":"PAYLOAD","status":"ACTIVE","operator":null,"country":"US","launch_date":"2023-11-22","launch_site_code":"AFETR","launch_vehicle":null,"mission":null,"orbit_class":"UNKNOWN","rcs_meters":null,"size_class":null,"mass_kg":null,"dimensions":null,"purposes":["comms"],"wikipedia_slug":null,"has_3d_model":false,"image_url":null,"decayed_at":null,"tle_current":{"epoch":"2026-09-19T19:14:17.679264Z","epoch_age_seconds":207161,"freshness":"STALE","line1":"1 58419U 23180T   26262.80159351  .00001989  00000+0  81781-4 0  9996","line2":"2 58419  43.0001 287.5147 0001341 234.4496 125.6231 15.27586395158580","mean_motion":15.27586395,"eccentricity":0.0001341,"inclination_deg":43.0001,"raan_deg":287.5147,"arg_perigee_deg":234.4496,"mean_anomaly_deg":125.6231,"bstar":8.1781e-5,"rev_number":15858,"period_min":94.266354080746,"perigee_km":482.10986468825,"apogee_km":483.95002966348,"semimajor_km":6861.1669471759,"source":"CELESTRAK","updated_at":"2026-09-21T09:00:33.873661Z"}}}